Location: Kawakawa
(35.3830°S, 174.0670°E)
Time: 15:33:05
(UTC+12:00)

ISS - Pass Details

Date: 06 July 2022
Orbit: 412 x 420 km, 51.6° (Epoch: 15 August)

Event Time Altitude Azimuth Distance (km) Brightness Sun altitude
Rises 18:02:52 0° 217° (SW) 2,385 0.3 -8.0°
Reaches altitude 10° 18:05:23 10° 199° (SSW) 1,514 -1.0 -8.5°
Maximum altitude 18:07:57 20° 149° (SSE) 1,055 -2.2 -9.0°
Enters shadow 18:09:51 13° 109° (ESE) 1,323 -1.9 -9.3°
